Weather History for Charlottetown, PE

Change the Weather History Date:

Thursday, December 6, 2012

  Actual Average Record
Temperature  
Mean Temperature 30 °F -  
Max Temperature 32 °F 30 °F 53 °F (1999)
Min Temperature 28 °F 16 °F 8 °F (2002)
Degree Days  
Heating Degree Days 35    
Moisture  
Dew Point 25 °F    
Average Humidity 80    
Maximum Humidity 100    
Minimum Humidity 61    
Precipitation  
Precipitation 0.03 in 0.17 in - ()
Sea Level Pressure  
Sea Level Pressure 29.94 in    
Wind  
Wind Speed 13 mph ()    
Max Wind Speed 21 mph    
Max Gust Speed 33 mph    
Visibility 11.8 miles    
Events Snow    
Averages and records for this station are not official NWS values.
T = Trace of Precipitation, MM = Missing Value Source: Averaged Metar Reports

Daily Weather History Graph

Daily Weather History Graph

Search for Another Location

Airport:

Trip Planner

Search our weather history database for the weather conditions in past years. The results will help you decide how hot, cold, wet, or windy it might be!

Date:

Astronomy

Dec. 06, 2012 Rise Set
Actual Time 7:41 AM AST 4:26 PM AST
Civil Twilight 7:06 AM AST 5:00 PM AST
Nautical Twilight 6:28 AM AST 5:38 PM AST
Astronomical Twilight 5:52 AM AST 6:15 PM AST
Moon No Moon Rise 12:11 PM AST (12/6)
Length of Visible Light 9h 54m
Length of Day
8h 45m
Waning Gibbous, 50% of the Moon is Illuminated
Dec 6
Waning Gibbous
Dec 13
New
Dec 20
First Quarter
Dec 28
Full
Jan 4
Last Quarter

Hourly Weather History & Observations

Time (AST) Temp. Windchill Dew Point Humidity Pressure Visibility Wind Dir Wind Speed Gust Speed Precip Events Conditions
12:00 AM 35.6 °F 26.2 °F 30.2 °F 81% 29.74 in 15.0 mi WNW 15.0 mph 24.2 mph N/A   Mostly Cloudy
12:41 AM 35.6 °F 28.0 °F 32.0 °F 87% 29.75 in 15.0 mi WNW 10.4 mph 24.2 mph N/A   Overcast
1:00 AM 35.6 °F 27.1 °F 30.2 °F 81% 29.75 in 15.0 mi WNW 12.7 mph 20.7 mph N/A   Overcast
1:39 AM 33.8 °F 25.3 °F 30.2 °F 87% 29.75 in 4.0 mi WNW 11.5 mph 23.0 mph N/A Snow Light Snow Showers
2:00 AM 33 °F - 31 °F 88% 29.76 in 4 mi WNW 11.5 mph - - Snow Light Snow Showers
2:00 AM 33.8 °F 25.8 °F 30.2 °F 87% 29.76 in 4.0 mi WNW 10.4 mph 17.3 mph N/A Snow Light Snow Showers
2:41 AM 32.0 °F 22.1 °F 28.4 °F 87% 29.78 in 15.0 mi WNW 13.8 mph - N/A   Mostly Cloudy
3:00 AM 32.0 °F 20.8 °F 26.6 °F 80% 29.78 in 15.0 mi WNW 17.3 mph 24.2 mph N/A   Overcast
4:00 AM 30.2 °F 18.9 °F 24.8 °F 80% 29.79 in 15.0 mi West 16.1 mph 23.0 mph N/A   Overcast
5:00 AM 30.2 °F 20.8 °F 23.0 °F 75% 29.81 in 15.0 mi West 11.5 mph 18.4 mph N/A   Overcast
6:00 AM 30.2 °F 21.3 °F 23.0 °F 75% 29.83 in 15.0 mi West 10.4 mph 19.6 mph N/A   Overcast
6:50 AM 30.2 °F 21.3 °F 24.8 °F 80% 29.84 in 7.0 mi WNW 10.4 mph 19.6 mph N/A Snow Light Snow Showers
7:00 AM 30.2 °F 19.8 °F 26.6 °F 86% 29.84 in 3.0 mi WNW 13.8 mph - N/A Snow Light Snow Showers
7:33 AM 30.2 °F 23.4 °F 28.4 °F 93% 29.85 in 1.5 mi WNW 6.9 mph - N/A Snow Light Snow Showers
8:00 AM 31 °F - 30 °F 93% 29.86 in 1 mi WNW 9.2 mph - - Snow Light Snow Showers
8:00 AM 30.2 °F 21.3 °F 30.2 °F 100% 29.86 in 1.5 mi NW 10.4 mph - N/A Snow Light Snow Showers
9:00 AM 30.2 °F 18.5 °F 30.2 °F 100% 29.89 in 1.5 mi NW 17.3 mph 25.3 mph N/A Snow Light Snow Showers
9:10 AM 32.0 °F 21.6 °F 28.4 °F 87% 29.90 in 5.0 mi NW 15.0 mph 24.2 mph N/A Snow Light Snow Showers
9:20 AM 32.0 °F 22.1 °F 28.4 °F 87% 29.90 in 15.0 mi NW 13.8 mph 23.0 mph N/A Snow Light Snow Showers
10:00 AM 32.0 °F 21.6 °F 26.6 °F 80% 29.92 in 15.0 mi NW 15.0 mph 31.1 mph N/A Snow Light Snow Showers
11:00 AM 30.2 °F 17.8 °F 24.8 °F 80% 29.95 in 15.0 mi NW 19.6 mph 32.2 mph N/A Snow Light Snow Showers
11:20 AM 30.2 °F 19.3 °F 24.8 °F 80% 29.96 in 15.0 mi NW 15.0 mph 32.2 mph N/A   Overcast
12:00 PM 30.2 °F 18.5 °F 23.0 °F 75% 29.97 in 15.0 mi NW 17.3 mph 28.8 mph N/A   Overcast
12:45 PM 28.4 °F 15.1 °F 21.2 °F 74% 29.98 in 15.0 mi NW 20.7 mph 29.9 mph N/A Snow Light Snow Showers
1:00 PM 28.4 °F 15.8 °F 21.2 °F 74% 29.99 in 15.0 mi NW 18.4 mph 26.5 mph N/A Snow Light Snow Showers
2:00 PM 29 °F - 21 °F 61% 30.01 in 15 mi NW 19.6 mph - - Snow Light Snow Showers
2:00 PM 28.4 °F 15.4 °F 21.2 °F 74% 30.00 in 15.0 mi NW 19.6 mph 33.4 mph N/A Snow Light Snow Showers
2:43 PM 28.4 °F 15.1 °F 21.2 °F 74% 30.02 in 15.0 mi NW 20.7 mph 31.1 mph N/A   Overcast
3:00 PM 28.4 °F 18.0 °F 21.2 °F 74% 30.03 in 15.0 mi NNW 12.7 mph 27.6 mph N/A   Overcast
4:00 PM 30.2 °F 19.3 °F 21.2 °F 69% 30.06 in 15.0 mi NNW 15.0 mph 27.6 mph N/A   Overcast
5:00 PM 30.2 °F 18.5 °F 23.0 °F 75% 30.09 in 15.0 mi NW 17.3 mph 24.2 mph N/A   Overcast
6:00 PM 30.2 °F 19.3 °F 23.0 °F 75% 30.10 in 15.0 mi NNW 15.0 mph 27.6 mph N/A   Overcast
7:00 PM 30.2 °F 18.5 °F 23.0 °F 75% 30.13 in 15.0 mi NW 17.3 mph 24.2 mph N/A   Overcast
8:00 PM 30 °F - 23 °F 66% 30.15 in 12 mi NNW 12.7 mph - - Snow Light Snow Showers
8:00 PM 30.2 °F 20.2 °F 23.0 °F 75% 30.15 in 12.0 mi NW 12.7 mph 19.6 mph N/A Snow Light Snow Showers
9:00 PM 30.2 °F 20.8 °F 23.0 °F 75% 30.16 in 15.0 mi NW 11.5 mph 23.0 mph N/A Snow Light Snow Showers
9:47 PM 30.2 °F 20.2 °F 23.0 °F 75% 30.16 in 15.0 mi NNW 12.7 mph 19.6 mph N/A   Overcast
10:00 PM 30.2 °F 19.8 °F 23.0 °F 75% 30.17 in 15.0 mi NW 13.8 mph 20.7 mph N/A   Overcast
11:00 PM 30.2 °F 21.3 °F 23.0 °F 75% 30.17 in 15.0 mi NNW 10.4 mph 20.7 mph N/A   Overcast